Location: Unspecified
(42.3348°N, 0.0000°E)
Time: 03:30:01
(UTC+00:00)

NOAA 19 - Visible Passes

Search period start: 04 April 2026 00:00
Search period end: 14 April 2026 00:00
Orbit: 838 x 857 km, 99.0° (Epoch: 29 March)

Date Brightness Start Highest point End Pass type
(mag) Time Alt. Az. Time Alt. Az. Time Alt. Az.
4 Apr 6.1 20:45:56 34° ENE 20:45:56 34° ENE 20:50:37 10° N visible
4 Apr 6.9 22:27:52 29° WNW 22:27:52 29° WNW 22:31:15 10° NNW visible
5 Apr 6.3 20:32:55 27° ENE 20:33:03 27° ENE 20:37:37 10° N visible
5 Apr 6.5 22:14:51 37° WNW 22:14:51 37° WNW 22:18:42 10° NNW visible
6 Apr 6.6 20:19:54 21° ENE 20:20:27 22° ENE 20:24:32 10° NNE visible
6 Apr 6.1 22:01:50 47° NW 22:01:50 47° NW 22:06:05 10° NNW visible
7 Apr 6.8 20:06:54 16° ENE 20:07:52 17° ENE 20:11:20 10° NNE visible
7 Apr 5.7 21:48:49 59° NW 21:48:49 59° NW 21:53:23 10° NNW visible
8 Apr 7.1 19:53:53 12° ENE 19:55:18 14° ENE 19:57:54 10° NNE visible
8 Apr 5.4 21:35:48 69° N 21:35:48 69° N 21:40:39 10° NNW visible
8 Apr 7.8 23:17:44 11° WNW 23:17:44 11° WNW 23:18:38 10° WNW visible
9 Apr 7.3 19:41:47 10° ENE 19:42:46 10° NE 19:43:46 10° NE visible
9 Apr 5.3 21:22:48 65° NE 21:22:48 65° NE 21:27:51 10° N visible
9 Apr 7.5 23:04:43 15° WNW 23:04:43 15° WNW 23:06:53 10° NW visible
10 Apr 5.5 21:09:47 53° ENE 21:09:47 53° ENE 21:15:01 10° N visible
10 Apr 7.2 22:51:42 20° WNW 22:51:42 20° WNW 22:54:43 10° NW visible
11 Apr 5.7 20:56:46 41° ENE 20:56:58 41° ENE 21:02:08 10° N visible
11 Apr 6.9 22:38:42 26° WNW 22:38:42 26° WNW 22:42:22 10° NW visible
12 Apr 6.0 20:43:45 32° ENE 20:44:18 33° ENE 20:49:11 10° N visible
12 Apr 6.5 22:25:41 34° WNW 22:25:41 34° WNW 22:29:53 10° NNW visible
13 Apr 6.3 20:30:45 25° E 20:31:40 26° ENE 20:36:10 10° N visible
13 Apr 6.1 22:12:41 44° WNW 22:12:41 44° WNW 22:17:20 10° NNW visible
